Year,Month,Day,Hour,Minute,Value (Times are PST for temperature in C)
2012,08,23,09,15,15.40
2012,08,23,09,16,15.40
2012,08,23,09,17,15.30
2012,08,23,09,18,15.30
2012,08,23,09,19,15.30
2012,08,23,09,20,15.30
2012,08,23,09,21,15.30
2012,08,23,09,22,15.40
2012,08,23,09,23,15.40
2012,08,23,09,24,15.40
2012,08,23,09,25,15.40
2012,08,23,09,26,15.40
2012,08,23,09,27,15.40
2012,08,23,09,28,15.50
2012,08,23,09,29,15.50
2012,08,23,09,30,15.60
2012,08,23,09,31,15.60
2012,08,23,09,32,15.70
2012,08,23,09,33,15.80
2012,08,23,09,34,15.80
2012,08,23,09,35,15.80
2012,08,23,09,36,15.80
2012,08,23,09,37,15.80
2012,08,23,09,38,15.90
2012,08,23,09,39,15.90
2012,08,23,09,40,16.00
2012,08,23,09,41,16.10
2012,08,23,09,42,16.10
2012,08,23,09,43,16.10
2012,08,23,09,44,16.10
2012,08,23,09,45,16.10
2012,08,23,09,46,16.10
2012,08,23,09,47,16.10
2012,08,23,09,48,16.10
2012,08,23,09,49,16.10
2012,08,23,09,50,16.10
2012,08,23,09,51,16.10
2012,08,23,09,52,16.10
2012,08,23,09,53,16.10
2012,08,23,09,54,16.10
2012,08,23,09,55,16.10
2012,08,23,09,56,16.10
2012,08,23,09,57,16.10
2012,08,23,09,58,16.20
2012,08,23,09,59,16.20
2012,08,23,10,00,16.20
2012,08,23,10,01,16.30
2012,08,23,10,02,16.30
2012,08,23,10,03,16.40
2012,08,23,10,04,16.60
2012,08,23,10,05,16.60
2012,08,23,10,06,16.60
2012,08,23,10,07,16.60
2012,08,23,10,08,16.60
2012,08,23,10,09,16.60
2012,08,23,10,10,16.60
2012,08,23,10,11,16.60
2012,08,23,10,12,16.70
2012,08,23,10,13,16.70
2012,08,23,10,14,16.70
2012,08,23,10,15,16.70
2012,08,23,10,16,16.70
2012,08,23,10,17,16.70
2012,08,23,10,18,16.70
2012,08,23,10,19,16.70
2012,08,23,10,20,16.80
2012,08,23,10,21,16.80
2012,08,23,10,22,16.90
2012,08,23,10,23,16.90
2012,08,23,10,24,16.90
2012,08,23,10,25,16.90
2012,08,23,10,26,17.00
2012,08,23,10,27,17.00
2012,08,23,10,28,17.00
2012,08,23,10,29,17.10
2012,08,23,10,30,17.20
2012,08,23,10,31,17.10
2012,08,23,10,32,17.10
2012,08,23,10,33,17.10
2012,08,23,10,34,17.10
2012,08,23,10,35,17.10
2012,08,23,10,36,17.20
2012,08,23,10,37,17.20
2012,08,23,10,38,17.10
2012,08,23,10,39,17.10
2012,08,23,10,40,17.20
2012,08,23,10,41,17.10
2012,08,23,10,42,17.00
2012,08,23,10,43,17.00
2012,08,23,10,44,17.00
2012,08,23,10,45,17.00
2012,08,23,10,46,17.10
2012,08,23,10,47,17.10
2012,08,23,10,48,17.10
2012,08,23,10,49,17.00
2012,08,23,10,50,17.00
2012,08,23,10,51,17.00
2012,08,23,10,52,17.00
2012,08,23,10,53,17.10
2012,08,23,10,54,17.20
2012,08,23,10,55,17.10
2012,08,23,10,56,17.00
2012,08,23,10,57,17.00
2012,08,23,10,58,17.00
2012,08,23,10,59,17.00
2012,08,23,11,00,17.00
2012,08,23,11,01,17.00
2012,08,23,11,02,17.00
2012,08,23,11,03,17.20
2012,08,23,11,04,17.30
2012,08,23,11,05,17.40
2012,08,23,11,06,17.40
2012,08,23,11,07,17.60
2012,08,23,11,08,17.60
2012,08,23,11,09,17.50
2012,08,23,11,10,17.50
2012,08,23,11,11,17.40
2012,08,23,11,12,17.50
2012,08,23,11,13,17.50
2012,08,23,11,14,17.60
2012,08,23,11,15,17.70
2012,08,23,11,16,17.80
2012,08,23,11,17,17.80
2012,08,23,11,18,17.90
2012,08,23,11,19,17.90
2012,08,23,11,20,18.00
2012,08,23,11,21,18.10
2012,08,23,11,22,18.10
2012,08,23,11,23,18.20
2012,08,23,11,24,18.30
2012,08,23,11,25,18.40
2012,08,23,11,26,18.50
2012,08,23,11,27,18.60
2012,08,23,11,28,18.60
2012,08,23,11,29,18.60
2012,08,23,11,30,18.70
2012,08,23,11,31,18.70
2012,08,23,11,32,18.80
2012,08,23,11,33,18.70
2012,08,23,11,34,18.70
2012,08,23,11,35,18.80
2012,08,23,11,36,18.90
2012,08,23,11,37,19.00
2012,08,23,11,38,19.10
2012,08,23,11,39,19.10
2012,08,23,11,40,19.20
2012,08,23,11,41,19.40
2012,08,23,11,42,19.50
2012,08,23,11,43,19.70
2012,08,23,11,44,19.80
2012,08,23,11,45,19.80
2012,08,23,11,46,19.70
2012,08,23,11,47,19.60
2012,08,23,11,48,19.40
2012,08,23,11,49,19.30
2012,08,23,11,50,19.30
2012,08,23,11,51,19.30
2012,08,23,11,52,19.30
2012,08,23,11,53,19.40
2012,08,23,11,54,19.40
2012,08,23,11,55,19.40
2012,08,23,11,56,19.50
2012,08,23,11,57,19.50
2012,08,23,11,58,19.50
2012,08,23,11,59,19.50
2012,08,23,12,00,19.50
2012,08,23,12,01,19.50
2012,08,23,12,02,19.50
2012,08,23,12,03,19.50
2012,08,23,12,04,19.50
2012,08,23,12,05,19.50
2012,08,23,12,06,19.60
2012,08,23,12,07,19.70
2012,08,23,12,08,19.70
2012,08,23,12,09,19.70
2012,08,23,12,10,19.60
2012,08,23,12,11,19.70
2012,08,23,12,12,19.80
2012,08,23,12,13,19.80
2012,08,23,12,14,19.80
2012,08,23,12,15,19.90
2012,08,23,12,16,19.80
2012,08,23,12,17,19.80
2012,08,23,12,18,19.80
2012,08,23,12,19,19.80
2012,08,23,12,20,19.80
2012,08,23,12,21,19.90
2012,08,23,12,22,19.90
2012,08,23,12,23,19.80
2012,08,23,12,24,19.80
2012,08,23,12,25,19.80
2012,08,23,12,26,19.90
2012,08,23,12,27,20.10
2012,08,23,12,28,20.20
2012,08,23,12,29,20.20
2012,08,23,12,30,20.20
2012,08,23,12,31,20.20
2012,08,23,12,32,20.20
2012,08,23,12,33,20.20
2012,08,23,12,34,20.10
2012,08,23,12,35,19.90
2012,08,23,12,36,19.70
2012,08,23,12,37,19.60
2012,08,23,12,38,19.50
2012,08,23,12,39,19.40
2012,08,23,12,40,19.40
2012,08,23,12,41,19.40
2012,08,23,12,42,19.40
2012,08,23,12,43,19.30
2012,08,23,12,44,19.30
2012,08,23,12,45,19.30
2012,08,23,12,46,19.30
2012,08,23,12,47,19.30
2012,08,23,12,48,19.30
2012,08,23,12,49,19.20
2012,08,23,12,50,19.20
2012,08,23,12,51,19.20
2012,08,23,12,52,19.20
2012,08,23,12,53,19.20
2012,08,23,12,54,19.20
2012,08,23,12,55,19.10
2012,08,23,12,56,19.20
2012,08,23,12,57,19.20
2012,08,23,12,58,19.30
2012,08,23,12,59,19.30
2012,08,23,13,00,19.40
2012,08,23,13,01,19.40
2012,08,23,13,02,19.40
2012,08,23,13,03,19.40
2012,08,23,13,04,19.50
2012,08,23,13,05,19.60
2012,08,23,13,06,19.50
2012,08,23,13,07,19.50
2012,08,23,13,08,19.40
2012,08,23,13,09,19.40
2012,08,23,13,10,19.40
2012,08,23,13,11,19.50
2012,08,23,13,12,19.60
2012,08,23,13,13,19.50
2012,08,23,13,14,19.60
2012,08,23,13,15,19.60
2012,08,23,13,16,19.60
2012,08,23,13,17,19.60
2012,08,23,13,18,19.60
2012,08,23,13,19,19.70
2012,08,23,13,20,19.80
2012,08,23,13,21,19.90
2012,08,23,13,22,19.90
2012,08,23,13,23,20.00
2012,08,23,13,24,20.10
2012,08,23,13,25,20.00
2012,08,23,13,26,19.90
2012,08,23,13,27,19.90
2012,08,23,13,28,19.90
2012,08,23,13,29,19.80
2012,08,23,13,30,19.80
2012,08,23,13,31,19.80
2012,08,23,13,32,19.70
2012,08,23,13,33,19.70
2012,08,23,13,34,19.70
2012,08,23,13,35,19.60
2012,08,23,13,36,19.50
2012,08,23,13,37,19.50
2012,08,23,13,38,19.50
2012,08,23,13,39,19.50
2012,08,23,13,40,19.40
2012,08,23,13,41,19.40
2012,08,23,13,42,19.40
2012,08,23,13,43,19.40
2012,08,23,13,44,19.30
2012,08,23,13,45,19.10
2012,08,23,13,46,19.10
2012,08,23,13,47,19.10
2012,08,23,13,48,19.20
2012,08,23,13,49,19.30
2012,08,23,13,50,19.30
2012,08,23,13,51,19.30
2012,08,23,13,52,19.30
2012,08,23,13,53,19.40
2012,08,23,13,54,19.40
2012,08,23,13,55,19.40
2012,08,23,13,56,19.50
2012,08,23,13,57,19.50
2012,08,23,13,58,19.50
2012,08,23,13,59,19.60
2012,08,23,14,00,19.70
2012,08,23,14,01,19.80
2012,08,23,14,02,19.90
2012,08,23,14,03,19.80
2012,08,23,14,04,19.80
2012,08,23,14,05,19.70
2012,08,23,14,06,19.70
2012,08,23,14,07,19.60
2012,08,23,14,08,19.60
2012,08,23,14,09,19.80
2012,08,23,14,10,19.90
2012,08,23,14,11,19.90
2012,08,23,14,12,19.90
2012,08,23,14,13,19.90
2012,08,23,14,14,19.90
2012,08,23,14,15,19.90
2012,08,23,14,16,19.80
2012,08,23,14,17,19.80
2012,08,23,14,18,19.90
2012,08,23,14,19,19.90
2012,08,23,14,20,19.90
2012,08,23,14,21,19.90
2012,08,23,14,22,19.90
2012,08,23,14,23,19.90
2012,08,23,14,24,20.00
2012,08,23,14,25,20.10
2012,08,23,14,26,20.20
2012,08,23,14,27,20.30
2012,08,23,14,28,20.40
2012,08,23,14,29,20.40
2012,08,23,14,30,20.40
2012,08,23,14,31,20.30
2012,08,23,14,32,20.20
2012,08,23,14,33,20.20
2012,08,23,14,34,20.20
2012,08,23,14,35,20.20
2012,08,23,14,36,20.10
2012,08,23,14,37,19.90
2012,08,23,14,38,19.90
2012,08,23,14,39,19.90
2012,08,23,14,40,19.90
2012,08,23,14,41,19.90
2012,08,23,14,42,19.90
2012,08,23,14,43,19.90
2012,08,23,14,44,20.00
2012,08,23,14,45,20.10
2012,08,23,14,46,20.10
2012,08,23,14,47,20.10
2012,08,23,14,48,20.10
2012,08,23,14,49,20.10
2012,08,23,14,50,20.10
2012,08,23,14,51,20.00
2012,08,23,14,52,19.90
2012,08,23,14,53,19.80
2012,08,23,14,54,19.80
2012,08,23,14,55,19.70
2012,08,23,14,56,19.70
2012,08,23,14,57,19.70
2012,08,23,14,58,19.80
2012,08,23,14,59,19.90
2012,08,23,15,00,19.90
2012,08,23,15,01,19.90
2012,08,23,15,02,19.90
2012,08,23,15,03,19.90
2012,08,23,15,04,19.90
2012,08,23,15,05,20.00
2012,08,23,15,06,20.10
2012,08,23,15,07,20.20
2012,08,23,15,08,20.20
2012,08,23,15,09,20.20
2012,08,23,15,10,20.30
2012,08,23,15,11,20.30
2012,08,23,15,12,20.40
2012,08,23,15,13,20.40
2012,08,23,15,14,20.40
2012,08,23,15,15,20.30
2012,08,23,15,16,20.30
2012,08,23,15,17,20.20
2012,08,23,15,18,20.20
2012,08,23,15,19,20.20
2012,08,23,15,20,20.20
2012,08,23,15,21,20.20
2012,08,23,15,22,20.20
2012,08,23,15,23,20.20
2012,08,23,15,24,20.20
2012,08,23,15,25,20.20
2012,08,23,15,26,20.20
2012,08,23,15,27,20.20
2012,08,23,15,28,20.20
2012,08,23,15,29,20.20
2012,08,23,15,30,20.20
2012,08,23,15,31,20.20
2012,08,23,15,32,20.20
2012,08,23,15,33,20.10
2012,08,23,15,34,20.10
2012,08,23,15,35,20.10
2012,08,23,15,36,20.20
2012,08,23,15,37,20.20
2012,08,23,15,38,20.10
2012,08,23,15,39,20.00
2012,08,23,15,40,19.90
2012,08,23,15,41,19.90
2012,08,23,15,42,19.90
2012,08,23,15,43,19.90
2012,08,23,15,44,19.90
2012,08,23,15,45,20.00
2012,08,23,15,46,20.10
2012,08,23,15,47,20.10
2012,08,23,15,48,20.00
2012,08,23,15,49,19.90
2012,08,23,15,50,19.80
2012,08,23,15,51,19.70
2012,08,23,15,52,19.70
2012,08,23,15,53,19.70
2012,08,23,15,54,19.70
2012,08,23,15,55,19.80
2012,08,23,15,56,19.90
2012,08,23,15,57,19.90
2012,08,23,15,58,19.90
2012,08,23,15,59,19.90
2012,08,23,16,00,19.90
2012,08,23,16,01,19.90
2012,08,23,16,02,19.90
2012,08,23,16,03,19.80
2012,08,23,16,04,19.90
2012,08,23,16,05,19.90
2012,08,23,16,06,19.90
2012,08,23,16,07,19.80
2012,08,23,16,08,19.70
2012,08,23,16,09,19.70
2012,08,23,16,10,19.70
2012,08,23,16,11,19.70
2012,08,23,16,12,19.60
2012,08,23,16,13,19.50
2012,08,23,16,14,19.40
2012,08,23,16,15,19.50
2012,08,23,16,16,19.50
2012,08,23,16,17,19.60
2012,08,23,16,18,19.50
2012,08,23,16,19,19.50
2012,08,23,16,20,19.50
2012,08,23,16,21,19.50
2012,08,23,16,22,19.50
2012,08,23,16,23,19.40
2012,08,23,16,24,19.30
2012,08,23,16,25,19.30
2012,08,23,16,26,19.30
2012,08,23,16,27,19.40
2012,08,23,16,28,19.40
2012,08,23,16,29,19.40
2012,08,23,16,30,19.30
2012,08,23,16,31,19.20
2012,08,23,16,32,19.20
2012,08,23,16,33,19.20
2012,08,23,16,34,19.30
2012,08,23,16,35,19.30
2012,08,23,16,36,19.30
2012,08,23,16,37,19.30
2012,08,23,16,38,19.30
2012,08,23,16,39,19.30
2012,08,23,16,40,19.30
2012,08,23,16,41,19.20
2012,08,23,16,42,19.20
2012,08,23,16,43,19.20
2012,08,23,16,44,19.20
2012,08,23,16,45,19.10
2012,08,23,16,46,19.20
2012,08,23,16,47,19.10
2012,08,23,16,48,19.10
2012,08,23,16,49,19.10
2012,08,23,16,50,19.00
2012,08,23,16,51,18.90
2012,08,23,16,52,19.00
2012,08,23,16,53,19.00
2012,08,23,16,54,18.90
2012,08,23,16,55,18.90
2012,08,23,16,56,19.00
2012,08,23,16,57,19.10
2012,08,23,16,58,19.10
2012,08,23,16,59,19.10
2012,08,23,17,00,19.10
2012,08,23,17,01,19.00
2012,08,23,17,02,18.90
2012,08,23,17,03,18.90
2012,08,23,17,04,18.90
2012,08,23,17,05,18.90
2012,08,23,17,06,18.90
2012,08,23,17,07,18.90
2012,08,23,17,08,18.90
2012,08,23,17,09,18.90
2012,08,23,17,10,18.90
2012,08,23,17,11,18.90
2012,08,23,17,12,18.90
2012,08,23,17,13,18.90
2012,08,23,17,14,18.70
2012,08,23,17,15,18.70
2012,08,23,17,16,18.70
2012,08,23,17,17,18.60
2012,08,23,17,18,18.50
2012,08,23,17,19,18.50
2012,08,23,17,20,18.50
2012,08,23,17,21,18.40
2012,08,23,17,22,18.40
2012,08,23,17,23,18.50
2012,08,23,17,24,18.50
2012,08,23,17,25,18.60
2012,08,23,17,26,18.60
2012,08,23,17,27,18.60
2012,08,23,17,28,18.60
2012,08,23,17,29,18.50
2012,08,23,17,30,18.40
2012,08,23,17,31,18.40
2012,08,23,17,32,18.40
2012,08,23,17,33,18.40
2012,08,23,17,34,18.50
2012,08,23,17,35,18.40
2012,08,23,17,36,18.40
2012,08,23,17,37,18.40
2012,08,23,17,38,18.40
2012,08,23,17,39,18.40
2012,08,23,17,40,18.40
2012,08,23,17,41,18.50
2012,08,23,17,42,18.50
2012,08,23,17,43,18.50
2012,08,23,17,44,18.40
2012,08,23,17,45,18.40
2012,08,23,17,46,18.40
2012,08,23,17,47,18.30
2012,08,23,17,48,18.30
2012,08,23,17,49,18.30
2012,08,23,17,50,18.30
2012,08,23,17,51,18.30
2012,08,23,17,52,18.30
2012,08,23,17,53,18.30
2012,08,23,17,54,18.30
2012,08,23,17,55,18.20
2012,08,23,17,56,18.20
2012,08,23,17,57,18.20
2012,08,23,17,58,18.20
2012,08,23,17,59,18.20
2012,08,23,18,00,18.20
2012,08,23,18,01,18.20
2012,08,23,18,02,18.20
2012,08,23,18,03,18.20
2012,08,23,18,04,18.20
2012,08,23,18,05,18.20
2012,08,23,18,06,18.10
2012,08,23,18,07,18.10
2012,08,23,18,08,18.20
2012,08,23,18,09,18.20
2012,08,23,18,10,18.10
2012,08,23,18,11,18.10
2012,08,23,18,12,18.10
2012,08,23,18,13,18.00
2012,08,23,18,14,17.90
2012,08,23,18,15,18.00
2012,08,23,18,16,18.00
2012,08,23,18,17,17.90
2012,08,23,18,18,18.00
2012,08,23,18,19,18.10
2012,08,23,18,20,18.10
2012,08,23,18,21,18.00
2012,08,23,18,22,17.90
2012,08,23,18,23,17.90
2012,08,23,18,24,17.90
2012,08,23,18,25,17.80
2012,08,23,18,26,17.70
2012,08,23,18,27,17.70
2012,08,23,18,28,17.70
2012,08,23,18,29,17.70
2012,08,23,18,30,17.70
2012,08,23,18,31,17.70
2012,08,23,18,32,17.60
2012,08,23,18,33,17.50
2012,08,23,18,34,17.50
2012,08,23,18,35,17.40
2012,08,23,18,36,17.40
2012,08,23,18,37,17.40
2012,08,23,18,38,17.40
2012,08,23,18,39,17.40
2012,08,23,18,40,17.40
2012,08,23,18,41,17.40
2012,08,23,18,42,17.30
2012,08,23,18,43,17.30
2012,08,23,18,44,17.30
2012,08,23,18,45,17.30
2012,08,23,18,46,17.30
2012,08,23,18,47,17.20
2012,08,23,18,48,17.10
2012,08,23,18,49,17.10
2012,08,23,18,50,17.00
2012,08,23,18,51,16.90
2012,08,23,18,52,16.80
2012,08,23,18,53,16.80
2012,08,23,18,54,16.70
2012,08,23,18,55,16.70
2012,08,23,18,56,16.70
2012,08,23,18,57,16.70
2012,08,23,18,58,16.70
2012,08,23,18,59,16.60
2012,08,23,19,00,16.60
2012,08,23,19,01,16.50
2012,08,23,19,02,16.40
2012,08,23,19,03,16.40
2012,08,23,19,04,16.40
2012,08,23,19,05,16.40
2012,08,23,19,06,16.40
2012,08,23,19,07,16.40
2012,08,23,19,08,16.30
2012,08,23,19,09,16.30
2012,08,23,19,10,16.20
2012,08,23,19,11,16.20
2012,08,23,19,12,16.20
2012,08,23,19,13,16.20
2012,08,23,19,14,16.20
2012,08,23,19,15,16.20
2012,08,23,19,16,16.20
2012,08,23,19,17,16.20
2012,08,23,19,18,16.20
2012,08,23,19,19,16.20
2012,08,23,19,20,16.20
2012,08,23,19,21,16.20
2012,08,23,19,22,16.20
